{"data":{"norad_id":68806,"intl_designator":"2026-089E","name":"STARLINK-37370","alt_names":[],"object_type":"PAYLOAD","status":"ACTIVE","operator":null,"country":"US","launch_date":"2026-04-23","launch_site_code":"AFWTR","launch_vehicle":null,"mission":null,"orbit_class":"UNKNOWN","rcs_meters":null,"size_class":null,"mass_kg":null,"dimensions":null,"purposes":["comms"],"wikipedia_slug":null,"has_3d_model":false,"image_url":null,"decayed_at":null,"tle_current":{"epoch":"2026-09-20T00:50:01.670784Z","epoch_age_seconds":80328,"freshness":"FRESH","line1":"1 68806U 26089E   26263.03474156  .00011419  00000+0  35534-3 0  9990","line2":"2 68806  97.2871 108.7419 0000858  96.0493 264.0847 15.33459819 23189","mean_motion":15.33459819,"eccentricity":8.58e-5,"inclination_deg":97.2871,"raan_deg":108.7419,"arg_perigee_deg":96.0493,"mean_anomaly_deg":264.0847,"bstar":0.00035534,"rev_number":2318,"period_min":93.905297169055,"perigee_km":464.91189993925,"apogee_km":466.08626789125,"semimajor_km":6843.6360839153,"source":"CELESTRAK","updated_at":"2026-09-20T09:00:44.006266Z"}}}